Wind_Speed
33 32 30 30 31 31 30 28 27 26 26 25 23 22 21 21 22 22 24 25 25 24 22 21 20 20 19 19 19 19 20 21 21 21 19 18 17 16 15 13 12 12 11
35 35 35 34 33 33 32 31 31 30 29 29 29 28 26 25 25 25 26 27 28 28 27 25 24 23 23 22 22 22 22 22 22 22 22 22 21 19 18 17 15 14 13
37 37 37 36 36 35 34 33 33 32 32 32 32 33 32 30 29 29 29 30 31 32 32 30 28 27 26 26 25 24 24 24 23 23 23 24 23 23 21 20 18 17 16
37 37 39 38 38 37 35 34 34 34 35 35 35 36 36 34 33 32 32 33 34 35 35 34 33 31 30 29 28 26 25 25 24 24 24 24 25 24 23 22 21 19 18
38 39 39 40 39 37 37 36 36 37 37 38 38 38 38 37 36 36 35 37 38 38 38 37 37 35 32 31 29 27 26 26 25 25 24 25 25 25 25 24 23 21 20
40 41 41 42 42 42 41 40 39 39 39 40 41 40 39 39 38 37 37 38 39 40 40 40 39 38 35 33 30 29 27 27 27 26 25 25 25 26 25 25 24 23 22
42 43 42 43 43 43 42 42 41 40 40 41 42 41 40 39 38 37 38 39 40 40 41 41 41 40 37 34 32 31 30 29 29 27 27 26 26 26 26 26 25 25 24
42 42 42 41 41 41 41 40 40 41 40 41 42 42 40 39 39 39 39 41 40 39 41 41 41 40 38 35 33 33 32 32 31 29 28 27 26 26 26 27 26 26 25
38 38 39 39 38 39 38 38 39 39 39 39 41 42 42 40 39 38 39 40 39 38 39 39 39 40 38 36 34 34 34 33 31 29 28 27 26 26 26 26 26 26 26
36 37 38 38 38 39 40 39 40 40 41 40 40 42 43 42 41 38 37 39 39 37 35 36 38 38 37 36 35 35 33 31 29 27 27 27 26 25 25 25 26 26 26
37 38 39 40 41 41 42 43 43 43 43 42 42 42 43 43 42 40 37 37 37 35 34 34 36 37 36 35 34 33 31 29 26 25 26 24 24 24 24 24 24 24 24
39 39 40 40 42 43 44 45 45 46 45 45 44 44 44 43 41 40 37 36 36 35 33 33 34 35 35 35 34 32 29 27 25 24 23 22 22 22 23 23 23 23 24
41 41 41 42 43 44 45 46 47 47 46 46 46 45 44 42 40 38 36 34 34 34 31 30 32 34 35 34 32 29 28 27 26 24 23 23 23 23 24 24 24 24 26
44 44 44 45 45 45 46 46 46 46 46 46 46 45 43 40 37 35 34 33 33 32 31 29 30 33 33 32 30 28 28 28 27 26 25 25 25 26 26 26 26 27 28
46 46 46 46 46 45 45 44 44 43 43 43 42 41 38 34 32 31 31 32 32 31 31 30 29 29 29 29 27 27 27 26 26 26 26 26 26 27 27 28 28 28 28
45 45 45 44 43 42 41 40 38 37 36 36 34 32 30 29 29 28 29 29 29 28 29 28 27 26 25 25 24 24 25 26 26 26 26 26 27 27 28 28 29 29 28
40 40 40 39 39 37 35 32 30 29 29 28 28 27 25 25 25 26 26 26 25 25 26 23 22 22 23 22 22 22 23 24 25 26 27 28 29 30 31 31 32 32 31
35 35 35 34 33 31 28 26 24 25 25 26 25 25 24 24 24 23 21 20 19 18 18 17 17 18 19 20 21 22 23 24 25 27 28 30 31 32 33 34 35 35 35
31 31 30 29 27 24 23 22 24 26 25 23 23 22 21 20 19 17 15 13 13 12 13 14 14 15 17 18 20 22 24 26 28 29 30 31 33 34 35 36 37 37 38
27 26 24 23 21 20 20 20 23 25 23 22 22 20 18 16 14 13 11 11 11 11 12 13 15 16 18 19 21 23 25 27 29 30 32 34 36 37 37 38 39 40 40
23 22 21 19 17 15 17 18 20 22 22 22 20 17 15 12 10 9 9 10 10 11 13 15 16 17 19 21 23 25 27 29 31 33 34 36 37 38 39 40 40 41 41
20 19 17 15 14 14 16 17 18 19 19 19 16 14 12 10 9 8 9 10 11 12 14 15 17 18 20 22 23 25 27 28 30 32 33 35 37 38 39 40 41 41 41
18 16 14 12 10 10 13 13 14 15 15 13 12 10 9 9 9 9 10 11 12 13 14 15 16 17 18 19 21 22 23 25 27 28 30 32 33 35 36 38 39 40 40
16 15 13 11 10 8 8 9 9 9 9 9 8 8 8 8 8 9 10 10 11 11 11 12 13 14 15 17 18 20 23 25 27 29 32 33 35 36 36 36 37 37 38
15 14 14 12 11 10 9 8 8 7 7 7 7 6 7 7 8 8 8 9 8 8 8 9 10 12 15 18 21 24 26 28 31 33 34 35 36 36 36 36 36 36 36
14 14 13 13 12 10 9 8 7 8 7 7 6 6 7 7 7 7 7 6 6 7 8 10 12 15 18 21 23 25 27 29 31 32 33 34 34 34 34 35 35 35 34
Wind_Direction
288 286 284 284 285 284 284 284 283 283 284 286 287 287 285 281 279 275 272 270 270 271 274 279 284 288 289 289 288 285 280 273 267 264 262 261 262 264 265 264 264 267 271
284 283 282 280 279 278 279 280 280 281 282 283 285 285 282 276 270 268 267 265 264 264 266 270 274 280 284 287 288 288 285 280 274 267 262 259 258 260 262 262 260 260 263
278 276 275 274 274 274 274 276 277 279 280 280 282 282 281 276 269 263 260 260 260 260 262 264 267 271 277 282 285 288 287 283 278 272 265 259 256 257 258 260 259 258 259
275 276 275 273 272 272 273 275 275 276 278 279 281 282 282 279 273 266 260 257 257 257 258 260 262 265 270 275 280 285 287 285 280 275 268 262 257 254 255 256 257 256 257
276 277 279 278 280 279 279 280 279 277 278 280 281 282 282 280 277 270 265 261 257 255 256 257 259 261 265 269 274 281 284 285 281 276 271 265 259 254 253 254 255 255 256
276 276 277 278 280 282 282 282 282 280 280 280 281 282 282 279 279 276 271 266 260 256 254 254 255 257 260 264 269 276 279 284 281 277 272 267 262 257 254 254 255 256 258
276 276 276 276 277 279 279 281 282 281 281 280 281 282 282 280 280 278 273 269 265 260 256 255 254 254 255 258 262 269 275 280 280 276 271 267 262 258 256 255 256 259 261
277 278 277 276 276 277 277 278 279 280 281 281 281 281 282 281 279 277 273 271 267 263 257 254 251 250 250 253 257 263 270 276 276 272 268 265 262 259 257 256 257 260 263
279 279 279 279 278 278 278 279 279 280 281 281 282 282 282 280 278 275 275 273 268 262 256 251 248 247 246 249 254 259 266 271 270 266 263 261 259 257 257 257 259 261 264
284 284 284 283 283 282 282 282 282 282 282 282 281 281 281 281 278 274 271 270 266 260 254 248 245 244 245 247 251 256 263 266 266 262 257 256 255 255 256 257 259 261 263
285 285 284 284 284 283 283 283 283 283 283 282 280 280 280 279 276 274 271 268 264 258 251 245 243 243 244 245 248 254 259 261 260 257 254 252 252 252 254 255 256 259 262
282 283 283 283 283 283 282 281 281 282 282 280 279 279 278 276 273 271 270 267 262 256 249 244 242 242 242 244 248 252 255 255 254 254 253 252 249 250 251 251 255 259 263
282 283 284 284 284 283 282 281 280 280 279 277 277 276 276 274 270 268 266 263 260 253 248 245 242 243 244 245 246 248 249 249 249 250 251 251 252 254 254 254 259 263 265
284 285 286 286 285 284 282 281 280 278 277 276 274 273 272 270 267 264 261 260 257 253 250 245 244 243 243 242 241 242 244 247 248 249 250 252 254 257 257 258 262 263 264
287 287 288 287 286 284 283 281 278 277 275 273 271 270 268 265 262 258 257 256 252 249 244 238 236 237 237 237 237 240 243 246 247 248 251 253 255 257 258 260 261 261 262
290 289 288 288 286 285 283 280 277 275 272 269 268 265 262 260 256 252 249 249 244 238 233 229 229 229 230 233 237 242 246 249 249 251 253 255 256 257 258 259 260 261 261
292 290 289 288 287 285 281 275 271 268 262 257 254 253 253 250 244 239 237 235 232 230 228 225 226 230 233 239 243 248 252 256 256 257 258 259 261 262 262 263 263 263 263
294 293 292 291 288 283 276 266 259 252 247 242 240 238 235 231 228 228 230 231 232 233 233 234 237 242 247 252 256 258 261 264 265 265 264 264 264 264 265 266 265 265 266
299 298 296 293 288 278 267 255 245 239 233 231 226 214 211 216 222 227 232 238 243 245 247 249 251 255 258 260 261 262 264 266 267 267 266 266 265 265 266 266 267 267 266
303 303 301 294 285 271 257 241 229 223 221 218 211 212 218 225 231 234 245 250 250 250 253 255 257 258 259 260 262 263 264 265 266 266 267 267 267 267 267 268 267 267 265
305 307 303 295 280 263 248 233 221 219 215 211 214 223 234 240 241 244 249 249 251 252 254 255 257 259 262 264 266 268 268 269 269 269 269 268 269 269 268 268 268 268 266
305 308 306 294 278 257 244 236 222 217 216 217 219 227 235 239 239 240 245 249 253 256 259 261 264 266 269 271 272 273 273 274 275 275 275 274 273 272 271 270 270 268 267
300 302 303 300 287 266 247 239 233 225 223 220 219 222 226 232 237 245 249 252 256 260 264 267 270 273 275 277 279 280 281 282 282 282 281 279 277 275 273 272 270 268 267
293 295 297 297 291 276 258 242 233 230 229 227 224 225 230 234 242 245 250 256 259 263 268 272 275 278 282 286 289 291 292 291 290 289 287 285 283 280 278 275 272 270 268
285 288 290 290 284 277 268 252 240 233 230 226 224 228 232 236 243 247 250 253 255 261 268 275 281 290 296 300 301 300 299 297 296 294 291 289 285 282 279 275 272 269 268
276 280 283 283 276 267 260 251 243 233 225 224 226 231 233 236 238 240 239 242 252 266 278 289 298 304 306 307 308 307 306 305 304 302 299 295 290 285 280 276 272 268 266
Height
5894 5892 5891 5890 5888 5886 5885 5884 5882 5881 5880 5879 5878 5877 5876 5876 5875 5875 5875 5876 5876 5877 5877 5876 5876 5876 5875 5874 5873 5872 5871 5870 5870 5870 5870 5871 5871 5871 5872 5872 5872 5872 5873
5885 5883 5882 5881 5880 5878 5877 5876 5875 5874 5873 5872 5871 5870 5870 5870 5869 5869 5869 5869 5869 5870 5871 5871 5871 5871 5870 5869 5869 5868 5867 5866 5865 5865 5865 5866 5866 5867 5867 5868 5868 5868 5869
5876 5874 5871 5870 5869 5868 5867 5867 5866 5865 5865 5864 5863 5862 5862 5861 5862 5861 5861 5861 5862 5862 5863 5864 5865 5864 5864 5864 5863 5862 5862 5861 5860 5860 5860 5860 5861 5862 5863 5863 5864 5864 5865
5866 5864 5861 5858 5856 5855 5855 5856 5856 5855 5855 5854 5854 5853 5852 5852 5852 5852 5852 5852 5853 5854 5855 5856 5857 5857 5858 5857 5857 5857 5856 5855 5854 5854 5854 5854 5855 5856 5858 5858 5859 5860 5860
5856 5855 5853 5849 5845 5844 5843 5844 5845 5845 5845 5844 5843 5842 5842 5842 5841 5842 5842 5842 5843 5844 5845 5847 5848 5849 5850 5851 5851 5850 5849 5849 5848 5848 5848 5848 5849 5850 5852 5853 5854 5855 5856
5846 5845 5844 5841 5839 5837 5835 5835 5835 5835 5834 5833 5832 5832 5832 5831 5831 5832 5832 5832 5832 5833 5835 5836 5838 5840 5842 5843 5844 5843 5842 5842 5841 5841 5842 5842 5843 5844 5845 5847 5848 5849 5850
5835 5834 5833 5832 5830 5828 5826 5826 5825 5824 5824 5823 5822 5822 5822 5822 5822 5822 5821 5821 5821 5822 5824 5825 5828 5831 5833 5835 5836 5836 5835 5835 5835 5834 5835 5835 5836 5837 5839 5841 5842 5844 5845
5825 5823 5822 5821 5820 5818 5817 5816 5815 5814 5814 5813 5811 5810 5811 5813 5812 5811 5810 5810 5810 5811 5812 5814 5817 5821 5824 5826 5828 5828 5828 5827 5827 5826 5827 5828 5829 5831 5832 5834 5836 5838 5839
5815 5813 5812 5810 5809 5808 5807 5807 5806 5804 5804 5803 5801 5800 5799 5801 5802 5802 5801 5799 5799 5800 5802 5804 5807 5810 5814 5818 5819 5820 5820 5819 5819 5819 5819 5820 5822 5823 5825 5827 5829 5831 5832
5806 5804 5802 5800 5799 5797 5796 5796 5795 5794 5793 5793 5792 5790 5789 5789 5789 5791 5791 5789 5789 5790 5791 5794 5797 5801 5805 5809 5810 5811 5811 5811 5811 5811 5812 5814 5815 5816 5818 5820 5822 5823 5825
5796 5794 5792 5791 5789 5788 5786 5785 5784 5783 5782 5782 5781 5780 5778 5778 5778 5778 5780 5781 5780 5781 5782 5785 5788 5792 5796 5799 5800 5802 5802 5803 5803 5804 5805 5807 5808 5810 5811 5813 5815 5816 5817
5787 5785 5783 5781 5779 5778 5776 5774 5773 5772 5771 5770 5769 5768 5767 5767 5767 5768 5769 5770 5770 5771 5774 5776 5779 5783 5786 5789 5791 5793 5793 5795 5796 5797 5799 5800 5802 5803 5804 5806 5808 5809 5810
5776 5774 5772 5770 5768 5766 5765 5763 5762 5760 5759 5758 5757 5756 5756 5756 5757 5758 5759 5760 5761 5762 5765 5767 5770 5773 5776 5779 5782 5784 5785 5787 5789 5790 5792 5794 5795 5797 5797 5799 5800 5802 5803
5763 5761 5759 5757 5755 5754 5752 5750 5749 5747 5746 5745 5744 5744 5744 5745 5746 5748 5750 5751 5752 5754 5756 5758 5760 5763 5766 5770 5773 5775 5778 5780 5781 5783 5785 5787 5789 5790 5791 5792 5793 5794 5795
5750 5748 5746 5744 5742 5740 5738 5737 5735 5734 5733 5733 5732 5733 5733 5735 5736 5738 5741 5743 5745 5746 5747 5750 5752 5754 5758 5761 5764 5767 5769 5772 5774 5775 5777 5779 5781 5782 5783 5784 5785 5785 5786
5737 5735 5733 5731 5729 5727 5725 5724 5723 5722 5721 5721 5721 5722 5724 5726 5728 5730 5733 5735 5737 5739 5741 5742 5745 5747 5750 5753 5756 5759 5761 5763 5765 5767 5769 5771 5772 5773 5774 5775 5776 5776 5777
5725 5723 5720 5718 5716 5715 5713 5713 5712 5712 5711 5712 5713 5715 5717 5719 5721 5724 5726 5728 5730 5732 5734 5736 5738 5740 5743 5746 5748 5751 5754 5756 5757 5759 5760 5762 5763 5764 5765 5765 5766 5766 5766
5716 5713 5710 5707 5705 5704 5703 5703 5703 5703 5704 5705 5706 5708 5710 5713 5716 5718 5721 5723 5726 5727 5729 5731 5733 5735 5738 5740 5742 5744 5746 5748 5749 5750 5751 5752 5753 5754 5754 5754 5755 5755 5755
5708 5705 5701 5698 5696 5695 5695 5695 5696 5697 5697 5699 5701 5702 5704 5708 5711 5714 5716 5718 5721 5723 5725 5727 5729 5731 5733 5735 5737 5738 5739 5740 5741 5741 5742 5742 5742 5743 5743 5743 5743 5742 5742
5701 5698 5694 5692 5690 5689 5689 5689 5689 5690 5692 5694 5696 5698 5700 5703 5706 5709 5711 5714 5716 5718 5720 5722 5724 5726 5728 5729 5730 5731 5731 5731 5731 5731 5731 5731 5731 5731 5731 5730 5730 5729 5729
5696 5693 5690 5687 5685 5684 5684 5684 5683 5685 5687 5689 5691 5694 5696 5699 5701 5704 5707 5709 5712 5714 5716 5717 5719 5720 5721 5722 5722 5722 5723 5722 5722 5721 5720 5720 5719 5718 5717 5717 5716 5715 5715
5692 5689 5686 5684 5682 5681 5681 5680 5680 5682 5683 5685 5687 5690 5693 5695 5697 5700 5703 5706 5708 5710 5711 5712 5713 5714 5715 5715 5715 5714 5714 5713 5713 5712 5711 5709 5708 5707 5705 5704 5703 5702 5702
5688 5686 5684 5682 5680 5679 5679 5679 5679 5680 5681 5682 5684 5687 5689 5692 5694 5697 5700 5702 5703 5705 5707 5707 5708 5708 5708 5708 5708 5707 5706 5705 5703 5702 5701 5699 5697 5695 5694 5692 5691 5689 5689
5684 5683 5681 5680 5679 5678 5677 5677 5677 5678 5679 5680 5682 5684 5687 5689 5691 5694 5696 5698 5700 5701 5702 5702 5702 5702 5702 5702 5701 5700 5699 5697 5695 5693 5690 5688 5686 5684 5682 5680 5678 5677 5675
5680 5679 5679 5677 5677 5676 5675 5675 5676 5676 5677 5679 5680 5683 5685 5687 5689 5691 5693 5695 5696 5697 5697 5697 5697 5697 5696 5696 5695 5693 5691 5689 5685 5682 5679 5676 5673 5670 5669 5667 5665 5664 5663
5676 5675 5675 5675 5674 5673 5673 5673 5674 5674 5675 5677 5679 5681 5683 5685 5687 5689 5690 5692 5693 5693 5693 5693 5693 5692 5691 5690 5687 5685 5682 5679 5675 5671 5667 5664 5661 5658 5656 5655 5653 5652 5651